Location: Betzi
(47.2343°N, 9.5260°E)
Time: 17:29:06
(UTC+00:00)

Cosmos 1125 Rocket - Pass Details

Date: 27 May 2022
Orbit: 756 x 780 km, 74.0° (Epoch: 06 July)

Event Time Altitude Azimuth Distance (km) Brightness Sun altitude
Exits shadow 00:43:30 26° 244° (WSW) 1,458 4.5 -18.9°
Maximum altitude 00:45:57 43° 299° (WNW) 1,056 4.2 -18.8°
Drops below altitude 10° 00:50:54 10° 11° (NNE) 2,299 7.2 -18.4°
Sets 00:53:24 0° 18° (NNE) 3,231 8.4 -18.3°
